User: anonymous   Login
Location: Mason Neck State Park
(38.6428°N, 77.1981°W)
Time: 20:57:55
(UTC-05:00)
Language:

Cosmos 1400 Rocket - Orbit

View from above orbital plane
View from above orbital plane
View from above satellite
View from above satellite

Ground track
Ground track

The orbit data is extracted from the following two-line orbital elements,

1 13403U 82079B   14354.53797257  .00006346  00000-0  44613-3 0  7458
2 13403 081.1703 230.0708 0036636 033.8312 326.5236 15.04406480759827
Epoch (UTC): 20 December 2014 12:54:40
Eccentricity: 0.0036636
inclination: 81.1703°
perigee height: 528 km
apogee height: 579 km
right ascension of ascending node: 230.0708°
argument of perigee: 33.8312°
revolutions per day: 15.04406480
mean anomaly at epoch: 326.5236°
orbit number at epoch: 75982

The dashed part of the orbit path shows where the satellite is in the earth's shadow,  

DLR